Flag for Italy

Past Weather in 43°52'59"N, 10°46'00"E, Italy — Yesterday and Last 2 Weeks

Currently: 48 °F. Passing clouds. (Weather station: Pisa / S. Giusto, Italy). See more current weather

Past Weather in 43°52'59"N, 10°46'00"E — Graph

°F

43°52'59"N, 10°46'00"E Temperature Yesterday

Maximum temperature yesterday: 59 °F (at 12:15 pm)
Minimum temperature yesterday: 46 °F (at 9:45 pm)
Average temperature yesterday: 52 °F

High & Low Weather Summary for the Past Weeks

 TemperatureHumidityPressure
High66 °F (Feb 17, 2:45 pm)100% (Feb 10, 5:45 am)30.45 "Hg (Feb 10, 5:45 am)
Low39 °F (Feb 14, 4:45 am)30% (Feb 17, 2:45 pm)29.18 "Hg (Feb 10, 5:45 pm)
Average51 °F88%29.98 "Hg
* Reported Feb 10 12:15 am — Feb 25 12:15 am, 43°52'59"N, 10°46'00"E. Weather by CustomWeather, © 2024

Note: Actual official high and low records may vary slightly from our data, if they occured in-between our weather recording intervals... More about our weather records

43°52'59"N, 10°46'00"E Weather History for the Previous 24 Hours

Scroll right to see more
 ConditionsComfort  
Time TempWeatherWind HumidityBarometerVisibility
12:15 am
Sun, Feb 25
46 °FPassing clouds.3 mph100%29.83 "HgN/A
11:45 pm
Sat, Feb 24
46 °FPassing clouds.5 mph93%29.83 "HgN/A
11:15 pm46 °FPassing clouds.7 mph93%29.83 "HgN/A
10:45 pm46 °FPassing clouds.8 mph93%29.83 "HgN/A
10:15 pm46 °FPassing clouds.5 mph100%29.83 "HgN/A
9:45 pm46 °FPassing clouds.7 mph100%29.83 "HgN/A
9:15 pm48 °FLight rain. Passing clouds.3 mph100%29.83 "HgN/A
8:15 pm48 °FLight rain. Partly cloudy.8 mph100%29.80 "HgN/A
7:45 pm48 °FPassing clouds.13 mph100%29.80 "HgN/A
7:15 pm50 °FPassing clouds.9 mph88%29.80 "HgN/A
6:45 pm50 °FPassing clouds.5 mph88%29.80 "HgN/A
6:15 pm50 °FPassing clouds.6 mph82%29.77 "HgN/A
5:15 pm52 °FPassing clouds.8 mph82%29.77 "HgN/A
4:45 pm54 °FPassing clouds.6 mph72%29.74 "HgN/A
4:15 pm54 °FPassing clouds.9 mph72%29.74 "HgN/A
3:15 pm55 °FScattered clouds.13 mph72%29.74 "HgN/A
2:45 pm57 °FScattered clouds.15 mph63%29.74 "HgN/A
2:15 pm59 °FScattered clouds.14 mph55%29.74 "HgN/A
1:45 pm57 °FScattered clouds.2 mph51%29.74 "HgN/A
1:15 pm57 °FPassing clouds.3 mph48%29.74 "HgN/A
12:45 pm59 °FPassing clouds.6 mph42%29.74 "HgN/A
12:15 pm59 °FPassing clouds.2 mph51%29.74 "HgN/A
11:45 am57 °FPassing clouds.2 mph55%29.74 "HgN/A
11:15 am55 °FPassing clouds.3 mph63%29.74 "HgN/A
10:45 am57 °FScattered clouds.6 mph51%29.74 "HgN/A
10:15 am55 °FScattered clouds.6 mph67%29.74 "HgN/A
9:45 am54 °FScattered clouds.3 mph77%29.74 "HgN/A
9:15 am54 °FScattered clouds.8 mph77%29.74 "HgN/A
8:45 am52 °FScattered clouds.5 mph72%29.74 "HgN/A
8:15 am50 °FScattered clouds.7 mph76%29.74 "HgN/A
7:45 am50 °FScattered clouds.6 mph76%29.71 "HgN/A
7:15 am50 °FPartly sunny.12 mph76%29.71 "HgN/A
6:45 am52 °FPassing clouds.10 mph72%29.71 "HgN/A
6:15 am52 °FPassing clouds.14 mph72%29.68 "HgN/A
5:45 am52 °FPassing clouds.14 mph72%29.68 "HgN/A
5:15 am52 °FPassing clouds.15 mph67%29.68 "HgN/A
4:45 am52 °FPassing clouds.15 mph67%29.68 "HgN/A
4:15 am52 °FPassing clouds.14 mph72%29.65 "HgN/A
3:45 am52 °FPassing clouds.14 mph72%29.65 "HgN/A
3:15 am52 °FPassing clouds.16 mph72%29.65 "HgN/A
2:45 am52 °FPassing clouds.16 mph77%29.65 "HgN/A
2:15 am52 °FPassing clouds.16 mph77%29.65 "HgN/A
Weather by CustomWeather, © 2024

See weather overview